Back to catalog

SL-12 DEB

LostHEO
NORAD 29311·DEBRIS·🇷🇺 Russia

Launched May 31, 1989 from Baikonur Cosmodrome

Loading…

Next Passes (next 24 hours)

TLE

StaleSource: Space-Track

Epoch: Feb 5, 2024, 21:32 UTC

1 29311U 89039S   24036.89763595  .01808401  19112-6  19614-1 0  9996
2 29311  61.5992 243.3425 4469773  71.9913   1.4190  6.70608891371329

Track SL-12 DEB in real time with AllMySat

Download on the App Store